Simultaneous Nadir Overpasses (SNOs) Predictions

Prediction of SNOs between METOP-A and TERRA Satellite Orbit:

Table of predicted SNOs for the next 14.0 days since TLE Epoch: 1/23/2021
Index Date (METOP-A) Time (METOP-A) Lat,Lon (METOP-A) SZA (METOP-A ) Date (TERRA) Time (TERRA) Lat,Lon (TERRA) SZA (TERRA ) Distance(km) Time Diff (sec)
1 01/23/2021 14:47:40 81.35, 5.78 103.02 01/23/2021 14:48:20 81.36, 5.82 103.04 1.21 40
2 01/23/2021 15:38:20 -81.34, 173.42 76.97 01/23/2021 15:37:47 -81.35, 173.34 76.99 1.90 33
3 01/26/2021 10:22:03 81.36, 71.93 102.29 01/26/2021 10:22:34 81.35, 72.11 102.31 3.00 31
4 01/26/2021 11:12:43 -81.35,-120.39 77.70 01/26/2021 11:12:01 -81.35,-120.34 77.71 0.87 42
5 01/29/2021 05:56:25 81.35, 138.47 101.55 01/29/2021 05:56:48 81.34, 138.36 101.54 2.07 23
6 01/29/2021 06:47:06 -81.35, -54.23 78.47 01/29/2021 06:46:15 -81.34, -54.06 78.49 3.16 51
7 02/01/2021 01:30:46 81.35,-155.01 100.77 02/01/2021 01:31:00 81.35,-155.03 100.77 0.70 14
8 02/01/2021 02:21:26 -81.33, 12.70 79.22 02/01/2021 02:20:27 -81.35, 12.57 79.25 2.77 59
9 02/03/2021 21:05:09 81.35, -88.89 99.92 02/03/2021 21:05:14 81.34, -88.85 99.91 1.86 5



Historial Predications of SNOs between METOP-A and TERRA
